This demonstration page uses our WeatherBlox Daily Observations layout. Learn more.

Left ArrowRight Arrow

41.86663, -103.66717

Hourly Observations for December 8, 2022

Temp ( °F °C ) Dew Point ( °F °C ) Humidity (%) Winds ( mph kmh ) Pressure ( in mb ) Visibility ( mi km ) Precip ( " mm )
12:53 am 00:53 Clear 22 -5.6 16 -8.9 77 77 ESE 7 11 30.11 1020 10 16 0.00 0.00
1:53 am 01:53 Clear 21 -6.1 15 -9.4 77 77 Calm 30.11 1020 10 16 0.00 0.00
2:53 am 02:53 Clear 19 -7.2 14 -10 80 80 SE 8 13 30.11 1020 10 16 0.00 0.00
3:53 am 03:53 Cloudy 22 -5.6 16 -8.9 77 77 ESE 7 11 30.09 1019 10 16 0.00 0.00
4:53 am 04:53 Clear 21 -6.1 16 -8.9 80 80 ESE 6 9 30.11 1020 10 16 0.00 0.00
5:53 am 05:53 Partly Cloudy 22 -5.6 17 -8.3 81 81 Calm 30.11 1020 10 16 0.00 0.00
6:53 am 06:53 Cloudy 22 -5.6 17 -8.3 81 81 WNW 8 13 30.16 1021 10 16 0.00 0.00
7:27 am 07:27 Cloudy with Light Snow 23 -5 18 -7.8 81 81 NW 7 11 30.25 1024 3 5 0.01 0.13
7:39 am 07:39 Cloudy with Light Snow 24 -4.4 19 -7.2 81 81 W 5 7 30.24 1024 2 3 0.01 0.13
7:45 am 07:45 Cloudy with Light Snow 23 -5 19 -7.2 84 84 WSW 3 6 30.26 1025 1 1 0.01 0.13
7:53 am 07:53 Cloudy with Light Snow 23 -5 19 -7.2 84 84 SW 5 7 30.17 1022 1 1 0.01 0.25
8:19 am 08:19 Cloudy with Light Snow 24 -4.4 20 -6.7 84 84 SE 6 9 30.23 1024 1 1 0.04 1.02
8:33 am 08:33 Cloudy with Heavy Snow 24 -4.4 20 -6.7 84 84 WNW 3 6 30.25 1025 0 0 0.06 1.52
8:53 am 08:53 Partly Cloudy with Heavy Snow 24 -4.4 20 -6.7 84 84 W 9 15 30.17 1022 0 0 0.09 2.29
9:08 am 09:08 Partly Cloudy with Snow 25 -3.9 22 -5.6 88 88 W 6 9 30.25 1024 1 1 0.03 0.76
9:17 am 09:17 Cloudy with Light Snow 26 -3.3 22 -5.6 84 84 W 6 9 30.24 1024 2 3 0.03 0.76
9:19 am 09:19 Cloudy with Light Snow 26 -3.3 22 -5.6 84 84 W 5 7 30.24 1024 3 5 0.03 0.76
9:27 am 09:27 Cloudy with Light Snow 26 -3.3 22 -5.6 84 84 W 7 11 30.22 1024 2 3 0.03 0.76
9:39 am 09:39 Partly Cloudy with Snow 27 -2.8 23 -5 85 85 W 9 15 30.22 1023 1 1 0.04 1.02
9:53 am 09:53 Cloudy with Light Snow 28 -2.2 24 -4.4 85 85 WNW 9 15 30.14 1021 2 2 0.04 1.02
10:03 am 10:03 Cloudy with Light Snow 29 -1.7 25 -3.9 85 85 WNW 8 13 30.19 1022 3 5 0.01 0.13
10:23 am 10:23 Cloudy with Light Snow 30 -1.1 25 -3.9 81 81 NNW 12 19 30.19 1022 3 4 0.01 0.13
10:28 am 10:28 Cloudy with Light Snow 30 -1.1 25 -3.9 81 81 NW 15 24 30.19 1022 1 1 0.01 0.13
10:36 am 10:36 Cloudy with Light Snow 30 -1.1 26 -3.3 85 85 NW 14 22 30.19 1022 1 1 0.01 0.25
10:53 am 10:53 Cloudy with Light Snow 31 -0.6 27 -2.8 85 85 WNW 12 19 30.14 1021 1 1 0.01 0.25
11:01 am 11:01 Cloudy with Light Snow 31 -0.6 27 -2.8 85 85 WNW 12 19 30.17 1022 1 1 0.01 0.25
11:12 am 11:12 Cloudy with Light Snow 32 0 28 -2.2 85 85 WNW 10 17 30.16 1021 1 2 0.01 0.25
11:26 am 11:26 Cloudy with Light Snow 32 0 28 -2.2 85 85 W 10 17 30.16 1021 1 1 0.01 0.25
11:34 am 11:34 Cloudy with Light Snow 32 0 29 -1.7 88 88 W 9 15 30.15 1021 1 2 0.02 0.51
11:53 am 11:53 Cloudy with Light Snow 33 0.6 29 -1.7 85 85 W 8 13 30.13 1020 1 2 0.02 0.51
12:22 pm 12:22 Cloudy with Light Snow 34 1.1 30 -1.1 85 85 W 9 15 30.14 1021 2 3 0.01 0.13
12:33 pm 12:33 Cloudy with Light Snow 35 1.7 30 -1.1 82 82 WNW 9 15 30.13 1020 4 6 0.01 0.13
12:41 pm 12:41 Cloudy with Light Snow 35 1.7 31 -0.6 85 85 WNW 7 11 30.13 1020 4 6 0.01 0.13
12:53 pm 12:53 Cloudy with Light Snow 35 1.7 30 -1.1 82 82 WNW 9 15 30.12 1020 7 11 0.01 0.13
1:53 pm 13:53 Cloudy 36 2.2 30 -1.1 79 79 WNW 8 13 30.12 1020 10 16 0.01 0.13
2:53 pm 14:53 Cloudy 36 2.2 28 -2.2 73 73 NW 10 17 30.14 1021 10 16 0.00 0.00
3:53 pm 15:53 Cloudy 36 2.2 28 -2.2 73 73 W 7 11 30.16 1021 10 16 0.00 0.00
4:53 pm 16:53 Cloudy 34 1.1 28 -2.2 79 79 WNW 6 9 30.19 1022 10 16 0.00 0.00
5:53 pm 17:53 Cloudy 30 -1.1 26 -3.3 85 85 W 5 7 30.23 1024 10 16 0.00 0.00
6:53 pm 18:53 Clear 25 -3.9 21 -6.1 85 85 WNW 6 9 30.25 1024 10 16 0.00 0.00
7:53 pm 19:53 Clear 22 -5.6 16 -8.9 77 77 W 7 11 30.27 1025 10 16 0.00 0.00
8:53 pm 20:53 Clear 19 -7.2 13 -10.6 77 77 NW 9 15 30.27 1025 10 16 0.00 0.00
9:53 pm 21:53 Clear 18 -7.8 12 -11.1 77 77 WNW 7 11 30.27 1025 10 16 0.00 0.00
10:53 pm 22:53 Clear 19 -7.2 11 -11.7 70 70 NW 7 11 30.25 1024 10 16 0.00 0.00
11:53 pm 23:53 Clear 10 -12.2 4 -15.6 76 76 ENE 6 9 30.26 1025 10 16 0.00 0.00

Powered by AerisWeather